Regional Weather Roundup
Issued by NWS

Home | Current Version | Previous Version | Graphics & Text | Print | Product List | Glossary On
Versions: 1 2 3 4 5 6 7 8 9 10 11 12 13 14 15 16 17 18 19 20 21 22 23 24 25 26 27 28 29 30 31 32 33 34 35 36 37 38 39 40 41 42 43 44 45 46 47 48 49 50
000
ASUS43 KFSD 020502
RWRSD

WEATHER ROUNDUP FOR SOUTH DAKOTA
NATIONAL WEATHER SERVICE SIOUX FALLS SD
1200 AM CDT SUN AUG 02 2015

NOTE: "FAIR" INDICATES FEW OR NO CLOUDS BELOW 12,000 FEET WITH NO
SIGNIFICANT WEATHER AND/OR OBSTRUCTIONS TO VISIBILITY.


SDZ001>005-009-010-012>017-020600-
NORTHWEST AND NORTH CENTRAL SOUTH DAKOTA

CITY           SKY/WX    TMP DP  RH WIND       PRES   REMARKS
BUFFALO          N/A     71  37  28 SE6       29.83R
FAITH            N/A     76  48  37 SW14      29.84S
MOBRIDGE       CLEAR     70  62  76 SE6       29.74S
$$

SDZ012>016-024>037-041>051-057-063-072>074-020600-
SOUTHWEST AND SOUTH CENTRAL SOUTH DAKOTA

CITY           SKY/WX    TMP DP  RH WIND       PRES   REMARKS
RAPID CTY ARPT CLEAR     73  60  63 SW8       29.93S
PIERRE         CLEAR     76  62  62 SW12      29.80F
CUSTER         CLEAR     59  50  72 NW3       30.11F
PHILIP         CLEAR     77  62  59 S14       29.85F
PINE RIDGE     CLEAR     69  60  73 E3        29.98F
WINNER         FAIR      75  59  57 SW13      29.86F
$$

SDZ004>011-016>023-039-040-020600-
NORTHEAST SOUTH DAKOTA

CITY           SKY/WX    TMP DP  RH WIND       PRES   REMARKS
ABERDEEN       CLEAR     63  59  87 SE6       29.71F
WATERTOWN      CLEAR     72  64  76 SW10      29.78S
BROOKINGS      CLEAR     70  61  73 S8        29.82S
SISSETON         N/A     69  66  90 W5        29.71F
$$

SDZ017-020-022-023-036>040-048>070-020600-
SOUTHEAST SOUTH DAKOTA

CITY           SKY/WX    TMP DP  RH WIND       PRES   REMARKS
SIOUX FALLS    CLEAR     75  64  68 SW8       29.83F
HURON          CLEAR     74  62  66 SW8       29.77F
MITCHELL       CLEAR     74  63  68 SW9       29.81F
YANKTON        CLEAR     73  61  64 SW10      29.85S
$$

ABBREVIATIONS USED IN REMARKS
   TC - TEMPERATURE IN CELSIUS
  WCI - WIND CHILL INDEX
   HX - HEAT INDEX
  VSB - VISIBILITY




USA.gov is the U.S. government's official web portal to all federal, state and local government web resources and services.